CPA259 VHHH-EGCC

Flight info

Callsign CPA259
Flight time N/A
Altitude 30100
Route BEKOL A461 SHL W22 TEPID W24 OSNOV G586 QP B330 ELKAL W179 IGNAK/K0941S0950 W179 WFX/K0935S0980 W179 OMBON W195 VIDEK/K0935S0950 W195 LAXAL/K0930S0980 W195 IDOPA W197 ANDIM B215 IBANO G470 AKLAS W192 FKG A368 SALMO/K0900S1040 A368 SARIN/K0900F340 N161 GASBI/N0492F340 N161 ABTEK/N0491F360 N161 LEYLA N644 ADEKI DCT BADIR DCT LAGAS DCT FOQUS DCT SARPI UM10 OLUPO UL851 KARDE UN644 SIN UW90 INB UL746 ODERO L746 LUGEB DCT OBCAS DCT SOBSA DCT REBLA DCT RILAS DCT BADOR DCT PITOK/N0477F380 DCT MAKAL DCT LALUK DCT KUMER DCT MIMVA DCT OTBED
Aircraft B77W/H-SDE1E2E3FGHIJ2J3J4J5M1RWXY/LB1D1

Departure

Time 2026-05-06 17:34
Airport Hong Kong International Airport (VHHH)

Arrival

Time N/A
Airport Manchester Airport (EGCC)
Time Latitude Longitude Altitude Speed Heading
2026-05-06 16:44 22.31479 113.93066 40 ft 0 kts 161°
2026-05-06 17:15 22.31482 113.93065 40 ft 3 kts 161°
2026-05-06 17:15 22.31507 113.93056 39 ft 4 kts 161°
2026-05-06 17:15 22.31532 113.93047 39 ft 2 kts 161°
2026-05-06 17:16 22.31553 113.93041 36 ft 4 kts 189°
2026-05-06 17:16 22.31573 113.93054 37 ft 4 kts 242°
2026-05-06 17:16 22.31583 113.93079 34 ft 4 kts 251°
2026-05-06 17:16 22.31587 113.93093 35 ft 0 kts 251°
2026-05-06 17:19 22.31585 113.93087 35 ft 2 kts 251°
2026-05-06 17:20 22.31580 113.93068 34 ft 3 kts 252°
2026-05-06 17:20 22.31572 113.93043 38 ft 4 kts 251°
2026-05-06 17:20 22.31558 113.92999 40 ft 7 kts 249°
2026-05-06 17:20 22.31540 113.92950 40 ft 7 kts 251°
2026-05-06 17:21 22.31525 113.92900 40 ft 7 kts 251°
2026-05-06 17:21 22.31509 113.92848 40 ft 7 kts 251°
2026-05-06 17:21 22.31495 113.92798 40 ft 7 kts 259°
2026-05-06 17:21 22.31502 113.92745 37 ft 7 kts 288°
2026-05-06 17:22 22.31523 113.92697 40 ft 7 kts 295°
2026-05-06 17:22 22.31544 113.92648 40 ft 8 kts 296°
2026-05-06 17:22 22.31567 113.92595 40 ft 8 kts 296°
2026-05-06 17:22 22.31591 113.92542 40 ft 8 kts 296°
2026-05-06 17:23 22.31615 113.92489 40 ft 8 kts 296°
2026-05-06 17:23 22.31639 113.92436 40 ft 8 kts 295°
2026-05-06 17:23 22.31647 113.92378 40 ft 8 kts 265°
2026-05-06 17:23 22.31632 113.92321 40 ft 8 kts 250°
2026-05-06 17:24 22.31613 113.92263 40 ft 8 kts 251°
2026-05-06 17:24 22.31594 113.92206 40 ft 8 kts 251°
2026-05-06 17:24 22.31575 113.92147 40 ft 10 kts 251°
2026-05-06 17:24 22.31546 113.92081 40 ft 10 kts 226°
2026-05-06 17:25 22.31482 113.92070 40 ft 10 kts 164°
2026-05-06 17:25 22.31418 113.92095 40 ft 10 kts 160°
2026-05-06 17:25 22.31353 113.92120 40 ft 10 kts 161°
2026-05-06 17:25 22.31289 113.92145 40 ft 10 kts 160°
2026-05-06 17:26 22.31225 113.92169 40 ft 10 kts 161°
2026-05-06 17:26 22.31160 113.92193 40 ft 10 kts 161°
2026-05-06 17:26 22.31093 113.92218 40 ft 13 kts 161°
2026-05-06 17:26 22.30995 113.92254 40 ft 15 kts 161°
2026-05-06 17:27 22.30897 113.92291 39 ft 15 kts 159°
2026-05-06 17:27 22.30801 113.92327 40 ft 13 kts 160°
2026-05-06 17:27 22.30721 113.92325 40 ft 13 kts 224°
2026-05-06 17:27 22.30690 113.92239 40 ft 13 kts 250°
2026-05-06 17:28 22.30660 113.92150 40 ft 13 kts 251°
2026-05-06 17:28 22.30631 113.92060 40 ft 13 kts 251°
2026-05-06 17:28 22.30602 113.91971 40 ft 13 kts 250°
2026-05-06 17:28 22.30574 113.91881 40 ft 13 kts 250°
2026-05-06 17:29 22.30544 113.91791 40 ft 14 kts 250°
2026-05-06 17:29 22.30502 113.91661 40 ft 21 kts 250°
2026-05-06 17:29 22.30453 113.91514 40 ft 21 kts 250°
2026-05-06 17:29 22.30408 113.91368 40 ft 21 kts 251°
2026-05-06 17:30 22.30360 113.91220 40 ft 21 kts 251°
2026-05-06 17:30 22.30312 113.91072 40 ft 21 kts 250°
2026-05-06 17:30 22.30264 113.90925 40 ft 21 kts 251°
2026-05-06 17:30 22.30217 113.90777 40 ft 21 kts 249°
2026-05-06 17:31 22.30169 113.90630 40 ft 21 kts 251°
2026-05-06 17:31 22.30121 113.90482 40 ft 21 kts 250°
2026-05-06 17:31 22.30073 113.90335 40 ft 21 kts 250°
2026-05-06 17:31 22.30023 113.90188 40 ft 21 kts 250°
2026-05-06 17:32 22.29975 113.90041 40 ft 21 kts 250°
2026-05-06 17:32 22.29929 113.89894 40 ft 21 kts 252°
2026-05-06 17:32 22.29872 113.89751 40 ft 21 kts 220°
2026-05-06 17:32 22.29735 113.89772 40 ft 20 kts 162°
2026-05-06 17:33 22.29646 113.89819 40 ft 14 kts 125°
2026-05-06 17:33 22.29661 113.89915 40 ft 12 kts 71°
2026-05-06 17:33 22.29728 113.90124 40 ft 61 kts 70°
2026-05-06 17:33 22.29945 113.90794 40 ft 130 kts 70°
2026-05-06 17:34 22.30319 113.91947 40 ft 188 kts 72°
2026-05-06 17:34 22.30767 113.93387 207 ft 210 kts 71°
2026-05-06 17:34 22.31227 113.94882 632 ft 214 kts 71°
2026-05-06 17:34 22.31731 113.96382 1203 ft 215 kts 71°
2026-05-06 17:35 22.32269 113.97953 1438 ft 232 kts 72°
2026-05-06 17:35 22.32802 113.99630 1929 ft 239 kts 73°
2026-05-06 17:35 22.33357 114.01377 2297 ft 253 kts 73°
2026-05-06 17:36 22.33634 114.05163 3198 ft 261 kts 111°
2026-05-06 17:36 22.32742 114.06889 3687 ft 267 kts 134°
2026-05-06 17:36 22.31296 114.08116 4235 ft 270 kts 154°
2026-05-06 17:36 22.29517 114.08703 4911 ft 269 kts 174°
2026-05-06 17:37 22.27630 114.08755 5433 ft 274 kts 182°
2026-05-06 17:37 22.25701 114.08712 6017 ft 278 kts 181°
2026-05-06 17:37 22.23765 114.08686 6678 ft 278 kts 181°
2026-05-06 17:37 22.21817 114.08664 7239 ft 281 kts 182°
2026-05-06 17:38 22.19845 114.08660 7772 ft 283 kts 177°
2026-05-06 17:38 22.17935 114.09237 8006 ft 294 kts 150°
2026-05-06 17:38 22.16465 114.10741 7981 ft 299 kts 120°
2026-05-06 17:38 22.15890 114.12871 8291 ft 299 kts 97°
2026-05-06 17:39 22.15664 114.15134 8741 ft 306 kts 97°
2026-05-06 17:39 22.15495 114.17443 9236 ft 311 kts 95°
2026-05-06 17:39 22.15370 114.19788 9772 ft 313 kts 92°
2026-05-06 17:39 22.15736 114.22103 10079 ft 320 kts 63°
2026-05-06 17:40 22.17110 114.24028 10206 ft 333 kts 36°
2026-05-06 17:40 22.19166 114.25208 10501 ft 337 kts 14°
2026-05-06 17:40 22.21458 114.25605 11135 ft 331 kts 357°
2026-05-06 17:40 22.23700 114.25205 11645 ft 326 kts 339°
2026-05-06 17:41 22.25852 114.24390 12119 ft 330 kts 337°
2026-05-06 17:41 22.28000 114.23520 12766 ft 328 kts 337°
2026-05-06 17:41 22.30131 114.22655 13454 ft 325 kts 337°
2026-05-06 17:41 22.32248 114.21808 14012 ft 325 kts 337°
2026-05-06 17:42 22.34356 114.20978 14464 ft 329 kts 337°
2026-05-06 17:42 22.36522 114.20134 14916 ft 332 kts 337°
2026-05-06 17:42 22.38711 114.19289 15395 ft 335 kts 337°
2026-05-06 17:42 22.40911 114.18442 15850 ft 337 kts 337°
2026-05-06 17:43 22.43134 114.17588 16294 ft 340 kts 337°
2026-05-06 17:43 22.45371 114.16730 16763 ft 344 kts 337°
2026-05-06 17:43 22.47681 114.15842 16868 ft 360 kts 337°
2026-05-06 17:43 22.50085 114.14917 16981 ft 374 kts 337°
2026-05-06 17:44 22.52589 114.13954 17112 ft 389 kts 338°
2026-05-06 17:44 22.55163 114.12914 17212 ft 401 kts 334°
2026-05-06 17:44 22.57741 114.11654 17340 ft 413 kts 332°
2026-05-06 17:44 22.60363 114.10291 17593 ft 422 kts 331°
2026-05-06 17:45 22.63021 114.08895 17974 ft 427 kts 331°
2026-05-06 17:45 22.65670 114.07509 18433 ft 428 kts 332°
2026-05-06 17:45 22.68363 114.06113 18911 ft 429 kts 332°
2026-05-06 17:45 22.71060 114.04728 19395 ft 429 kts 332°
2026-05-06 17:46 22.73771 114.03337 19797 ft 432 kts 332°
2026-05-06 17:46 22.76496 114.01932 20177 ft 435 kts 332°
2026-05-06 17:46 22.79235 114.00523 20556 ft 437 kts 332°
2026-05-06 17:46 22.81995 113.99107 20960 ft 440 kts 332°
2026-05-06 17:47 22.84776 113.97681 21372 ft 442 kts 332°
2026-05-06 17:47 22.87561 113.96251 21765 ft 444 kts 332°
2026-05-06 17:47 22.90361 113.94811 22142 ft 446 kts 332°
2026-05-06 17:47 22.93173 113.93354 22532 ft 448 kts 332°
2026-05-06 17:48 22.95958 113.91903 22875 ft 451 kts 331°
2026-05-06 17:48 22.98788 113.90427 23250 ft 453 kts 332°
2026-05-06 17:48 23.01634 113.88944 23597 ft 455 kts 332°
2026-05-06 17:48 23.04493 113.87455 23885 ft 457 kts 332°
2026-05-06 17:49 23.07300 113.85847 24199 ft 456 kts 326°
2026-05-06 17:49 23.09926 113.83933 24521 ft 455 kts 321°
2026-05-06 17:49 23.12394 113.81769 24847 ft 454 kts 315°
2026-05-06 17:49 23.13906 113.80213 25045 ft 454 kts 314°
2026-05-06 17:50 23.16182 113.77811 25350 ft 456 kts 313°
2026-05-06 17:50 23.18457 113.75394 25640 ft 457 kts 313°
2026-05-06 17:50 23.20736 113.72975 25938 ft 458 kts 314°
2026-05-06 17:50 23.23023 113.70560 26226 ft 460 kts 314°
2026-05-06 17:51 23.25324 113.68136 26510 ft 461 kts 314°
2026-05-06 17:51 23.27633 113.65712 26801 ft 462 kts 314°
2026-05-06 17:51 23.29954 113.63277 27075 ft 464 kts 314°
2026-05-06 17:51 23.32283 113.60833 27350 ft 465 kts 314°
2026-05-06 17:52 23.34623 113.58377 27621 ft 467 kts 314°
2026-05-06 17:52 23.36966 113.55916 27889 ft 468 kts 314°
2026-05-06 17:52 23.39313 113.53448 28149 ft 470 kts 314°
2026-05-06 17:52 23.41666 113.50973 28397 ft 471 kts 314°
2026-05-06 17:53 23.44027 113.48489 28629 ft 472 kts 314°
2026-05-06 17:53 23.46394 113.45995 28864 ft 474 kts 314°
2026-05-06 17:53 23.48765 113.43496 29092 ft 475 kts 314°
2026-05-06 17:53 23.51109 113.41026 29316 ft 476 kts 314°
2026-05-06 17:54 23.53503 113.38502 29526 ft 477 kts 314°
2026-05-06 17:54 23.55885 113.35963 29712 ft 478 kts 313°
2026-05-06 17:54 23.58254 113.33409 29907 ft 479 kts 313°
2026-05-06 17:54 23.60633 113.30842 29985 ft 482 kts 313°
2026-05-06 17:55 23.65139 113.25546 30055 ft 476 kts 305°
2026-05-06 17:55 23.68741 113.19506 30054 ft 474 kts 297°
2026-05-06 17:56 23.71486 113.12975 30055 ft 473 kts 292°
2026-05-06 17:56 23.74142 113.06394 30054 ft 473 kts 293°
2026-05-06 17:57 23.77423 113.00227 30058 ft 474 kts 313°
2026-05-06 17:57 23.82711 112.96150 30053 ft 485 kts 335°
2026-05-06 17:58 23.89227 112.94125 30056 ft 491 kts 341°
2026-05-06 17:58 23.95792 112.92009 30061 ft 493 kts 339°
2026-05-06 17:59 24.02350 112.89811 30056 ft 494 kts 339°
2026-05-06 17:59 24.08926 112.87619 30049 ft 494 kts 339°
2026-05-06 18:00 24.15505 112.85435 30062 ft 493 kts 339°
2026-05-06 18:00 24.22066 112.83261 30057 ft 492 kts 339°
2026-05-06 18:01 24.28632 112.81080 30061 ft 493 kts 339°
2026-05-06 18:01 24.35193 112.78899 30058 ft 493 kts 339°
2026-05-06 18:02 24.41709 112.76698 30049 ft 488 kts 335°
2026-05-06 18:02 24.44666 112.74954 30059 ft 479 kts 318°
2026-05-06 18:02 24.46989 112.72389 30076 ft 473 kts 303°
2026-05-06 18:03 24.49896 112.65981 30043 ft 470 kts 282°
2026-05-06 18:03 24.50645 112.58886 30048 ft 470 kts 275°
2026-05-06 18:04 24.51247 112.51699 30053 ft 474 kts 275°
2026-05-06 18:04 24.51904 112.44513 30068 ft 477 kts 275°
2026-05-06 18:05 24.52590 112.37346 30044 ft 468 kts 276°
2026-05-06 18:05 24.53273 112.30239 30036 ft 468 kts 276°
2026-05-06 18:06 24.53953 112.23123 30062 ft 469 kts 276°
2026-05-06 18:06 24.54631 112.15988 30059 ft 470 kts 276°
2026-05-06 18:07 24.55307 112.08826 30050 ft 472 kts 275°
2026-05-06 18:07 24.55979 112.01650 30047 ft 472 kts 275°
2026-05-06 18:08 24.56635 111.94615 30046 ft 472 kts 275°
2026-05-06 18:08 24.57302 111.87443 30046 ft 472 kts 275°
2026-05-06 18:09 24.57964 111.80278 30042 ft 471 kts 275°
2026-05-06 18:09 24.58622 111.73116 30028 ft 471 kts 275°
2026-05-06 18:10 24.59277 111.65953 30050 ft 470 kts 275°
2026-05-06 18:10 24.59928 111.58794 30028 ft 470 kts 275°
2026-05-06 18:11 24.60573 111.51653 30025 ft 470 kts 275°
2026-05-06 18:11 24.61204 111.44646 30021 ft 470 kts 275°
2026-05-06 18:12 24.62232 111.37516 30015 ft 471 kts 287°
2026-05-06 18:12 24.64956 111.30950 30025 ft 474 kts 300°
2026-05-06 18:13 24.68799 111.25088 30022 ft 476 kts 304°
2026-05-06 18:13 24.72813 111.19281 30023 ft 476 kts 304°
2026-05-06 18:14 24.76790 111.13461 30030 ft 475 kts 304°
2026-05-06 18:14 24.80723 111.07620 30022 ft 475 kts 304°
2026-05-06 18:15 24.84655 111.01762 30019 ft 475 kts 303°
2026-05-06 18:15 24.88466 110.96079 30022 ft 475 kts 303°
2026-05-06 18:16 24.92388 110.90220 30019 ft 475 kts 303°
2026-05-06 18:16 24.96312 110.84349 30012 ft 475 kts 303°
2026-05-06 18:17 25.00232 110.78481 30014 ft 475 kts 303°
2026-05-06 18:17 25.04153 110.72607 30011 ft 475 kts 303°
2026-05-06 18:18 25.08068 110.66734 30031 ft 475 kts 303°
2026-05-06 18:18 25.11960 110.60886 30019 ft 476 kts 303°
2026-05-06 18:19 25.15877 110.54995 30004 ft 475 kts 303°
2026-05-06 18:19 25.19781 110.49116 30006 ft 474 kts 303°
2026-05-06 18:20 25.23683 110.43231 29996 ft 474 kts 303°
2026-05-06 18:20 25.27572 110.37357 30002 ft 472 kts 303°
2026-05-06 18:21 25.31449 110.31498 29995 ft 472 kts 303°
2026-05-06 18:21 25.35294 110.25681 29992 ft 471 kts 303°
2026-05-06 18:22 25.39161 110.19821 29996 ft 471 kts 303°
2026-05-06 18:22 25.43003 110.13990 29992 ft 471 kts 303°
2026-05-06 18:23 25.46844 110.08153 30007 ft 472 kts 303°
2026-05-06 18:23 25.50714 110.02279 29975 ft 470 kts 303°
2026-05-06 18:24 25.54446 109.96589 29986 ft 471 kts 303°
2026-05-06 18:24 25.58305 109.90693 30004 ft 472 kts 303°
2026-05-06 18:25 25.62178 109.84780 29997 ft 474 kts 303°
2026-05-06 18:25 25.66058 109.78851 29982 ft 475 kts 303°
2026-05-06 18:26 25.69904 109.72962 29982 ft 474 kts 303°
2026-05-06 18:26 25.73763 109.67050 29987 ft 473 kts 303°
2026-05-06 18:27 25.77138 109.60830 29972 ft 468 kts 294°
2026-05-06 18:27 25.79579 109.54162 29972 ft 465 kts 286°
2026-05-06 18:28 25.81382 109.47268 29984 ft 465 kts 285°
2026-05-06 18:28 25.83161 109.40351 29959 ft 466 kts 285°
2026-05-06 18:29 25.84956 109.33476 29973 ft 467 kts 287°
2026-05-06 18:29 25.86782 109.26504 29964 ft 467 kts 287°
2026-05-06 18:30 25.88597 109.19574 29979 ft 467 kts 287°
2026-05-06 18:30 25.90399 109.12672 29975 ft 468 kts 287°
2026-05-06 18:31 25.92210 109.05723 29967 ft 469 kts 287°
2026-05-06 18:31 25.94001 108.98904 29966 ft 471 kts 287°
2026-05-06 18:32 25.95839 108.91962 29982 ft 472 kts 287°
2026-05-06 18:32 25.97701 108.84901 29963 ft 473 kts 287°
2026-05-06 18:33 25.99531 108.77930 29992 ft 473 kts 287°
2026-05-06 18:33 26.01380 108.70892 29966 ft 477 kts 287°
2026-05-06 18:34 26.03277 108.63797 29976 ft 480 kts 287°
2026-05-06 18:34 26.05191 108.56649 29987 ft 483 kts 287°
2026-05-06 18:35 26.07107 108.49469 29983 ft 484 kts 286°
2026-05-06 18:35 26.09019 108.42291 29995 ft 484 kts 286°
2026-05-06 18:36 26.11488 108.35388 29993 ft 484 kts 295°
2026-05-06 18:36 26.14457 108.28669 29990 ft 483 kts 294°
2026-05-06 18:37 26.16912 108.23033 30000 ft 483 kts 294°
2026-05-06 18:37 26.19810 108.16328 29996 ft 483 kts 294°
2026-05-06 18:38 26.22717 108.09575 30006 ft 483 kts 294°
2026-05-06 18:38 26.25620 108.02820 30006 ft 483 kts 294°
2026-05-06 18:39 26.28459 107.96202 30009 ft 484 kts 294°
2026-05-06 18:40 26.32800 107.86075 30010 ft 484 kts 294°
2026-05-06 18:40 26.35685 107.79352 30011 ft 473 kts 292°
2026-05-06 18:41 26.38486 107.72785 30027 ft 468 kts 292°
2026-05-06 18:41 26.41275 107.66199 30048 ft 471 kts 292°
2026-05-06 18:42 26.44078 107.59621 30046 ft 474 kts 292°
2026-05-06 18:42 26.46909 107.52967 30033 ft 475 kts 292°
2026-05-06 18:43 26.49749 107.46314 30049 ft 475 kts 292°
2026-05-06 18:43 26.52608 107.39664 30062 ft 474 kts 292°
2026-05-06 18:44 26.55448 107.33013 30059 ft 473 kts 292°
2026-05-06 18:44 26.58232 107.26396 30065 ft 473 kts 292°
2026-05-06 18:45 26.61025 107.19728 30033 ft 473 kts 292°
2026-05-06 18:45 26.63817 107.13080 30076 ft 473 kts 292°
2026-05-06 18:46 26.66647 107.06430 30075 ft 473 kts 292°
2026-05-06 18:46 26.69429 106.99904 30097 ft 473 kts 292°
2026-05-06 18:47 26.72205 106.93359 30090 ft 474 kts 292°